RH
69 72 76 75 73 72 69 66 56 53 48 44 48 50 48 39 28 37 49 54 53 51 65 69 84 95 94 90 81 76 79 85 75 72 68 62 61 56 45 44 42 35 23
81 81 77 72 66 66 59 48 41 41 45 50 52 54 49 32 34 31 32 30 38 40 48 70 86 97 98 96 95 90 96 95 93 91 92 96 84 73 53 47 40 37 35
86 74 64 65 70 61 37 38 39 42 45 50 56 42 35 42 36 36 35 34 36 38 43 74 88 87 88 82 90 90 91 91 89 84 82 94 98 96 85 54 33 28 27
85 76 74 72 59 36 37 40 43 44 43 39 24 35 43 46 47 50 51 47 45 45 64 79 80 79 73 59 60 70 75 75 77 77 85 88 88 86 87 90 84 82 54
81 77 67 46 37 40 42 42 35 24 18 20 28 36 44 52 57 59 57 51 44 45 45 45 47 45 40 39 42 65 67 70 70 73 84 79 76 81 81 79 82 87 88
77 57 38 39 40 41 38 31 23 18 17 23 25 29 47 60 58 59 55 51 52 48 44 43 45 40 40 38 39 41 65 69 70 70 70 74 79 79 75 76 76 76 82
58 39 42 41 43 37 31 22 14 10 10 12 22 41 51 56 61 58 57 55 51 55 44 42 44 42 28 34 40 44 65 66 66 67 67 70 68 71 74 75 76 78 80
41 43 46 45 39 34 26 16 10 8 8 12 24 41 61 54 61 61 59 64 62 56 49 53 43 29 30 43 44 41 45 62 63 63 64 64 66 67 71 75 76 76 77
46 49 49 43 38 29 20 12 10 11 9 18 31 43 61 65 67 68 68 67 64 59 60 42 32 31 37 31 30 32 33 34 46 66 65 65 65 68 73 76 78 77 80
51 52 53 42 37 31 16 10 20 35 14 25 48 53 60 76 76 71 62 56 60 56 57 51 39 41 40 41 39 40 41 34 35 58 77 75 75 77 79 77 79 82 83
55 56 54 39 36 25 12 47 74 60 23 32 47 46 44 50 54 61 63 62 64 64 66 62 53 57 59 50 52 54 51 48 43 46 59 75 88 85 84 83 85 81 81
55 56 51 39 36 17 27 68 67 14 18 38 41 46 50 53 59 66 72 72 74 71 70 68 65 69 68 62 64 64 64 62 61 61 63 66 86 89 86 84 79 79 81
58 56 47 35 18 40 62 59 29 23 28 25 49 58 58 60 62 70 75 80 82 77 75 76 77 71 68 65 60 59 51 51 56 57 57 60 71 74 78 82 86 88 87
60 56 47 62 45 58 66 60 35 14 36 55 68 66 67 67 68 73 74 84 80 80 85 83 74 68 67 58 51 41 33 29 29 30 32 35 40 71 93 94 92 92 91
60 56 50 47 48 60 78 20 35 41 54 62 58 60 68 66 69 70 74 78 88 91 88 83 79 68 65 51 41 33 31 33 37 40 43 46 51 94 94 96 99 95 94
60 45 43 43 50 50 26 44 38 36 55 59 66 54 58 60 67 71 72 71 73 80 86 65 61 64 56 49 42 31 31 44 50 55 58 58 73 96 95 94 93 92 92
63 51 39 46 45 36 40 29 67 48 55 64 56 44 47 60 63 67 69 72 70 72 64 60 59 56 55 50 37 29 33 44 56 60 59 60 58 74 52 56 57 98 99
50 40 45 45 46 37 46 74 42 48 52 51 60 58 53 58 65 70 72 52 51 58 68 62 56 60 53 43 34 35 40 48 53 50 42 42 42 50 56 51 43 74 66
46 45 49 49 47 67 87 46 46 50 52 56 65 69 64 67 73 71 62 55 58 70 66 64 64 60 50 41 38 41 44 48 45 53 60 64 72 68 61 58 57 50 50
48 55 54 59 65 92 84 57 54 54 56 60 63 70 70 72 77 82 58 65 69 70 66 69 67 60 51 42 46 54 46 48 41 58 64 67 65 61 59 66 63 54 51
50 61 60 67 98 96 79 59 60 63 62 62 63 69 73 77 88 86 71 72 72 72 67 70 68 60 50 48 60 63 60 48 52 62 74 54 55 61 70 62 63 65 56
58 63 70 98 86 98 82 60 59 59 58 63 65 68 72 78 88 81 77 74 72 71 66 75 66 66 49 63 68 66 59 65 100 73 81 48 58 65 69 79 70 66 56
65 76 99 95 99 91 81 59 51 55 50 53 64 70 74 83 89 78 79 67 60 64 67 73 67 58 61 71 77 74 79 78 83 65 86 64 57 61 65 69 69 92 96
81 94 94 99 98 90 63 48 50 50 50 55 63 74 79 83 87 77 68 61 50 59 68 71 62 56 70 76 87 90 89 77 64 62 78 80 64 57 54 64 65 85 99
96 95 99 99 98 72 46 36 34 37 42 54 67 74 77 85 78 73 56 56 52 52 62 60 53 64 77 84 85 88 84 78 66 57 69 90 78 71 58 61 69 91 75
99 100 100 98 77 41 32 30 34 42 50 67 73 76 79 86 76 64 52 54 55 48 57 49 59 70 74 76 79 86 88 83 81 76 73 89 88 92 98 74 79 75 80
Wind_Speed
9 8 7 7 5 4 6 5 6 7 7 9 10 11 13 15 16 11 9 9 10 9 3 6 6 7 7 7 7 12 12 10 15 16 18 23 23 19 24 23 23 21 21
7 7 7 7 7 5 5 6 7 9 10 10 11 14 16 15 11 13 13 13 13 12 9 8 7 1 3 6 7 8 8 10 12 13 14 13 18 23 28 29 30 31 30
8 9 9 7 6 6 7 8 10 10 10 12 13 14 11 11 13 13 10 12 10 7 8 8 7 6 5 6 6 7 8 10 11 13 15 15 15 17 20 24 32 34 35
11 11 9 7 7 7 7 9 9 9 11 12 12 11 11 12 13 9 12 10 9 7 4 6 8 9 10 11 9 9 9 11 13 14 14 15 14 16 18 21 23 24 28
13 11 10 8 7 7 6 8 10 11 11 10 10 11 12 12 11 13 12 8 10 6 7 8 9 12 15 16 15 9 10 12 14 15 14 16 17 17 19 23 23 22 22
14 13 11 8 7 6 6 8 9 11 11 11 11 11 10 11 12 10 9 12 12 13 19 15 15 16 17 18 18 17 13 14 14 14 16 16 16 19 23 22 22 23 24
17 14 11 9 8 6 7 9 12 12 13 13 12 10 11 12 10 9 10 14 14 21 16 16 18 20 18 18 17 16 14 14 14 16 18 19 22 20 22 22 22 22 23
16 15 13 10 8 7 11 12 12 14 15 14 11 12 5 9 10 12 12 18 19 16 13 17 19 18 17 15 17 19 19 17 17 17 18 20 21 22 23 23 24 25 25
19 17 14 12 9 10 11 13 15 18 17 15 13 9 5 4 13 13 15 14 16 13 16 15 15 14 14 15 17 19 22 24 23 21 22 22 22 22 23 24 25 26 27
20 18 17 14 11 11 11 12 17 21 18 14 13 12 12 13 9 9 9 15 14 16 17 16 14 14 16 19 20 22 26 25 25 23 19 20 22 23 24 26 27 29 29
22 21 18 15 12 11 9 15 20 21 17 13 12 12 11 13 13 13 17 15 15 16 18 17 15 17 20 21 23 27 28 27 26 26 26 23 22 25 28 30 31 33 34
25 22 20 16 14 11 14 23 25 18 14 13 12 12 11 10 12 13 15 18 19 19 17 17 19 20 23 24 27 24 23 28 29 29 30 31 30 31 32 33 34 33 31
28 25 21 13 12 15 21 23 18 18 14 15 14 12 11 12 13 12 14 17 20 21 20 20 20 21 24 27 27 30 32 33 35 37 39 39 36 34 34 30 29 29 27
30 27 22 24 21 24 29 20 17 12 15 14 12 13 14 14 13 12 14 16 20 22 24 24 22 23 21 27 33 34 31 30 31 31 32 33 32 28 26 25 26 25 25
31 24 23 19 21 22 21 12 10 13 12 10 9 12 15 14 12 13 14 17 19 24 26 25 21 19 25 31 29 29 30 29 29 28 28 27 26 23 22 23 24 26 24
30 22 20 19 16 13 8 10 10 12 10 9 10 12 10 10 11 14 16 17 20 22 28 27 27 27 28 27 28 28 28 27 27 26 26 26 24 22 22 24 24 25 25
27 26 21 17 10 8 9 5 17 13 10 9 10 11 11 12 14 16 17 20 19 21 26 29 30 28 27 27 27 26 25 26 25 24 24 24 25 26 27 27 25 24 25
28 23 16 12 9 9 5 17 13 11 11 10 11 13 14 14 17 18 19 19 20 21 23 29 30 28 27 26 27 27 25 25 26 25 24 24 24 23 23 25 27 28 29
26 20 15 11 12 7 16 11 11 12 12 14 17 18 17 17 18 18 19 19 20 21 23 26 27 28 29 27 28 27 28 28 25 22 16 13 16 19 21 22 24 27 28
22 16 14 13 11 11 11 13 15 15 16 18 19 21 20 20 20 20 20 20 21 22 23 23 24 27 27 27 27 28 29 29 28 19 13 16 17 18 19 21 22 22 22
22 18 19 17 10 17 13 17 20 23 25 25 23 22 23 22 21 22 21 21 22 23 21 21 23 25 27 27 25 25 28 29 26 17 21 19 18 18 20 20 18 18 19
23 21 18 15 16 20 15 19 23 25 25 28 28 24 23 23 23 22 21 23 24 23 20 20 23 25 25 23 23 24 25 27 23 22 29 23 20 19 19 20 19 18 19
24 21 16 16 21 16 17 23 24 26 26 25 26 27 24 24 24 22 21 24 25 21 20 21 23 23 22 20 21 24 25 27 26 28 26 28 18 21 22 21 17 13 14
29 27 21 21 24 20 23 24 24 25 26 25 26 26 25 24 24 21 21 24 22 20 20 21 23 19 19 19 19 22 25 28 27 24 20 25 18 25 26 21 13 11 9
21 26 25 27 23 20 25 27 27 25 25 24 23 25 25 24 22 20 21 22 21 21 19 21 19 17 17 17 18 21 24 25 29 28 19 15 24 29 27 23 12 11 12
27 30 32 18 21 27 25 24 23 21 22 20 21 24 24 26 21 20 21 21 22 19 19 19 16 15 15 15 17 19 21 22 24 26 14 24 27 25 24 24 24 15 20
Wind_Direction
185 190 192 191 199 245 267 277 292 302 313 318 318 313 315 319 323 322 325 324 315 322 306 272 284 323 337 330 323 332 343 349 347 345 338 331 326 321 325 324 324 318 311
205 209 209 217 234 246 265 290 303 311 314 315 317 317 317 315 319 314 314 314 311 309 295 242 252 302 342 334 350 10 356 356 352 353 348 333 319 322 323 320 319 318 317
227 226 222 228 233 251 282 296 301 306 307 310 312 317 319 315 321 326 340 338 339 329 302 260 245 237 257 298 340 344 334 336 336 336 327 325 333 334 332 323 319 318 314
224 226 230 218 229 257 286 294 299 305 310 311 316 318 319 324 330 334 334 337 337 330 292 266 270 279 291 293 301 317 316 320 320 322 315 313 320 323 327 330 330 328 316
225 223 213 214 237 261 288 302 316 319 324 330 326 323 320 322 326 326 322 317 326 319 316 304 291 293 297 300 300 310 314 311 311 312 308 313 315 320 320 322 323 324 325
219 208 213 227 252 274 300 314 327 338 336 329 325 317 310 310 312 306 308 325 323 324 323 308 302 307 312 310 307 303 312 311 310 303 305 305 309 314 314 317 318 316 316
209 211 222 239 255 276 310 326 337 335 332 327 319 311 298 293 289 289 299 320 319 322 321 318 319 321 320 315 310 304 317 311 305 296 293 291 298 304 307 309 310 310 310
212 220 228 244 268 301 322 332 334 334 328 323 316 315 281 293 275 291 299 310 313 317 307 311 313 318 320 321 321 317 311 308 304 299 297 294 295 298 300 302 304 305 304
216 223 235 255 277 305 317 328 332 331 324 314 310 307 311 290 306 290 301 302 309 297 300 304 308 313 311 316 320 318 314 309 304 296 294 289 289 291 293 296 298 299 299
223 232 243 257 277 298 316 331 336 324 312 308 308 309 301 291 296 297 297 305 304 305 302 304 308 304 302 299 310 315 314 311 308 303 296 290 288 289 291 293 293 293 293
230 237 246 258 276 296 305 313 323 316 311 313 309 307 300 295 288 288 300 303 300 293 299 297 302 306 307 300 308 310 310 306 303 300 294 282 283 285 287 289 291 290 290
236 241 249 260 271 278 291 317 320 308 303 302 306 303 303 302 307 297 290 292 294 308 305 297 299 305 305 304 311 308 300 295 293 290 287 285 287 286 285 286 289 288 289
240 243 249 268 289 297 315 324 308 296 299 307 304 306 307 310 315 305 298 289 299 304 304 303 302 306 304 306 305 300 298 292 287 285 285 285 285 285 286 288 287 288 289
243 242 251 275 275 293 293 300 283 291 298 289 296 306 309 310 300 300 301 297 300 296 302 306 304 306 302 305 305 305 303 300 297 293 290 289 290 289 288 286 288 287 286
240 248 252 262 267 285 307 278 291 286 272 274 296 302 290 296 288 301 297 299 297 298 302 307 303 303 302 309 308 308 308 307 303 299 297 297 295 293 291 285 283 283 286
238 239 256 260 277 296 272 289 297 279 259 271 301 309 288 294 297 295 293 296 299 296 294 302 307 307 309 310 310 310 311 309 304 301 297 295 293 291 288 287 288 285 281
244 246 250 257 270 245 266 285 293 264 264 282 301 316 311 303 301 293 298 298 294 288 292 300 305 308 309 312 312 312 312 309 307 303 299 298 295 290 288 283 283 280 280
239 243 241 245 227 245 247 303 268 260 266 280 299 307 310 299 293 290 296 296 295 293 291 300 305 308 312 315 315 314 316 313 311 305 301 296 295 298 301 295 276 272 275
234 230 226 219 234 248 314 273 272 278 279 284 285 292 303 287 286 287 291 295 292 290 296 300 304 309 313 318 315 316 319 321 322 325 316 311 315 313 310 305 296 282 274
229 226 228 227 225 282 296 278 280 286 288 287 284 281 288 281 280 287 284 291 289 294 299 296 301 308 312 317 316 320 322 325 324 326 316 312 323 317 315 311 305 294 274
223 223 213 212 242 302 268 275 277 277 278 280 277 277 282 281 281 291 282 289 291 296 295 294 302 307 311 315 318 322 322 326 326 337 333 326 329 324 325 311 311 304 282
216 209 210 223 265 298 273 274 281 277 275 276 273 271 278 276 288 288 283 289 291 294 291 294 302 306 309 311 316 322 327 330 325 332 327 325 332 331 329 320 308 300 288
212 211 222 258 300 286 273 283 284 275 277 275 271 265 270 271 290 286 282 288 293 290 289 296 300 305 303 314 317 320 325 325 315 317 320 316 329 325 338 333 312 304 308
208 219 248 287 290 284 285 287 285 279 275 273 269 260 264 269 289 281 283 289 291 285 287 291 297 299 302 313 316 317 319 318 316 320 326 309 328 323 332 341 308 298 323
233 252 273 282 287 288 287 289 287 283 275 270 263 258 263 266 284 278 282 291 286 281 283 288 292 296 303 307 308 311 318 319 321 323 332 314 322 323 329 341 333 280 321
268 271 286 291 287 290 294 296 292 284 274 263 261 260 264 277 277 272 284 290 283 284 279 286 284 287 291 298 307 311 316 317 319 322 316 318 319 329 323 329 325 312 287